Temperature
22 21 21 22 23 23 24 23 23 24 25 25 24 24 25 25 25 25 25 25 24 24 23 23 22 22 22 21 21 20 19 19 18 18 17 17 17 17 16 16 15 15 15 15
21 21 23 24 23 24 24 23 23 24 25 25 24 24 24 25 25 25 25 24 24 24 23 22 22 22 21 21 20 20 19 19 18 18 17 17 17 16 16 16 15 15 15 15
21 22 24 24 23 23 23 23 24 24 25 25 25 24 24 25 25 25 25 24 24 23 23 22 22 21 21 21 20 20 19 19 18 18 17 17 17 16 16 16 16 15 15 15
22 23 24 24 24 24 23 24 25 25 24 23 24 22 23 24 24 25 24 24 23 23 23 22 22 21 21 21 20 20 19 19 18 18 18 17 17 16 16 16 16 15 15 15
22 24 24 23 24 24 24 25 25 25 24 23 23 22 23 24 24 24 24 24 24 23 23 22 21 21 21 20 20 20 19 19 19 18 18 17 17 16 16 16 16 15 15 15
23 25 25 24 25 25 25 25 25 25 23 22 23 22 22 23 24 24 24 24 23 23 22 22 21 21 20 20 20 20 19 19 19 18 18 17 17 17 16 16 16 16 15 15
23 24 25 25 24 25 25 24 22 22 22 22 24 23 22 24 25 25 25 24 23 23 22 21 21 20 20 20 20 19 19 19 18 18 18 17 17 17 16 16 16 16 15 15
22 22 24 25 24 24 24 24 22 21 21 23 25 23 23 25 25 25 25 24 23 23 22 21 21 20 20 20 19 19 19 19 18 18 18 17 17 17 16 16 16 16 15 15
23 23 25 25 25 25 24 23 23 22 22 23 24 24 24 25 25 24 24 23 23 22 22 21 21 20 20 19 19 19 19 18 18 18 18 17 17 17 17 16 16 16 16 15
24 23 25 25 25 25 25 24 23 22 22 22 23 23 23 23 23 24 24 23 22 22 21 21 20 20 20 19 19 19 19 18 18 18 18 18 17 17 17 16 16 16 16 15
25 24 24 25 25 25 25 25 24 24 24 23 23 23 25 24 24 23 23 23 22 21 21 20 20 20 19 19 19 19 18 18 18 18 18 17 17 17 17 16 16 16 16 16
25 25 24 25 26 27 27 26 26 24 25 25 23 23 26 24 24 23 23 22 21 20 20 20 19 19 19 19 19 18 18 18 18 18 17 17 17 17 17 16 16 16 16 16
25 24 23 24 25 26 26 26 26 25 25 25 23 22 25 24 24 23 22 21 21 20 19 19 19 19 19 18 18 18 18 18 17 17 17 17 17 17 16 16 16 16 16 16
24 25 24 23 25 26 26 26 26 25 25 25 24 23 24 23 23 22 22 21 20 20 19 19 18 18 18 18 18 18 17 17 17 17 17 17 16 16 16 16 16 16 16 15
26 25 25 26 26 27 26 26 26 26 26 25 25 24 23 23 23 22 22 21 20 20 19 19 18 18 18 18 18 17 17 17 17 17 16 16 16 16 16 16 16 15 15 15
26 26 26 26 26 26 26 26 26 26 26 25 25 24 25 24 23 22 21 21 20 19 19 19 18 18 18 18 17 17 17 17 17 16 16 16 16 16 16 15 15 15 15 15
26 26 25 25 26 26 25 26 26 26 26 26 24 24 24 23 23 22 21 20 20 19 19 18 18 18 18 17 17 17 17 17 17 16 16 16 16 15 15 15 15 15 15 15
26 26 25 25 25 24 25 27 27 26 26 26 25 24 24 23 22 21 21 20 19 19 18 18 18 18 17 17 17 17 17 17 16 16 16 15 15 15 15 15 15 15 14 14
26 25 24 25 24 24 25 25 26 25 24 25 24 24 23 22 22 21 20 20 19 18 18 17 17 17 17 17 17 17 16 16 16 16 15 15 15 15 15 14 14 14 14 14
25 25 24 24 24 23 24 25 26 25 23 24 24 23 22 22 20 20 20 19 18 18 17 17 17 17 17 16 16 16 16 16 15 15 15 15 14 14 14 14 14 14 14 14
23 23 23 23 23 23 23 24 25 23 23 24 23 23 22 21 21 20 19 18 17 17 17 16 16 16 16 16 16 15 15 15 15 14 14 14 14 14 14 14 14 13 13 13
24 23 23 23 23 22 23 23 23 23 23 23 22 21 21 20 19 19 18 17 17 16 16 16 16 15 15 15 15 15 15 14 14 14 14 14 13 13 13 13 13 13 13 12
24 24 23 23 21 22 22 22 22 22 22 21 21 20 19 19 18 17 17 16 16 16 15 15 15 15 15 15 14 14 14 14 14 14 13 13 13 13 13 13 13 12 12 12
24 24 23 22 21 21 21 21 21 21 20 20 20 19 18 18 17 17 16 16 16 15 15 15 14 14 14 14 14 14 14 13 13 13 13 13 13 12 12 12 12 12 12 12
22 22 22 22 21 20 20 20 20 19 19 19 19 18 18 17 17 16 16 15 15 15 15 14 14 14 14 14 13 13 13 13 13 12 12 12 12 12 12 12 11 11 11 11
22 21 21 21 21 20 19 19 19 18 18 18 17 17 17 16 16 16 15 15 15 14 14 14 14 13 13 13 13 13 13 12 12 12 12 12 11 11 11 11 11 11 11 11
Wind_Speed
8 8 10 11 12 10 7 7 7 7 9 9 8 7 6 5 5 6 6 7 8 8 9 9 8 7 6 7 7 7 7 6 4 3 2 2 2 1 2 2 3 2 3 5
6 9 11 9 10 9 6 6 5 5 7 7 8 7 6 5 4 4 5 5 6 8 10 9 8 7 6 6 6 6 6 6 6 3 2 2 2 0 2 1 2 3 4 4
8 6 9 9 10 9 7 8 9 7 7 7 6 6 7 8 6 5 5 5 6 6 9 9 8 8 6 6 6 5 5 6 6 5 3 2 2 1 1 1 1 1 2 2
6 6 8 8 7 8 7 7 6 7 7 4 7 4 6 8 8 7 6 6 6 5 7 8 8 8 7 6 5 5 5 5 6 6 4 2 1 1 1 1 1 0 1 1
4 7 8 8 8 7 5 6 6 7 6 4 5 3 3 8 8 8 7 6 7 7 7 8 7 7 7 6 5 4 5 5 6 5 5 2 1 1 1 1 1 0 0 1
5 5 5 5 6 6 5 6 7 6 4 3 6 5 1 5 8 9 8 7 8 8 7 7 7 7 6 6 5 4 4 5 5 4 4 4 3 1 1 1 0 1 1 1
7 7 5 5 6 6 8 6 3 4 3 3 7 5 3 4 6 9 9 9 8 8 8 8 7 7 6 5 5 4 5 4 4 4 4 4 3 2 2 1 1 2 1 0
7 8 8 6 5 6 9 5 1 1 3 3 6 5 6 7 7 8 8 8 8 9 8 8 7 7 6 6 5 4 4 4 4 3 3 2 3 2 1 1 1 1 1 0
4 6 9 8 5 4 5 4 4 2 2 2 4 9 8 8 8 8 8 9 8 8 8 8 8 7 6 6 5 4 4 4 4 4 3 3 2 2 1 1 1 1 1 1
3 5 8 7 6 7 4 2 2 2 2 4 7 9 7 8 8 8 9 9 8 8 8 8 7 6 6 5 5 4 4 4 4 3 2 2 2 2 2 2 1 1 2 1
4 4 7 8 6 6 7 6 3 3 3 2 5 4 8 10 9 9 9 9 9 8 8 7 6 6 6 5 5 4 4 3 3 2 2 2 2 2 2 2 2 2 3 3
2 2 7 8 5 5 5 5 4 2 2 1 4 4 7 10 9 10 10 10 9 9 8 7 6 6 5 4 4 3 3 3 2 2 1 1 1 1 2 2 2 3 3 3
2 2 4 5 5 7 5 5 4 4 3 1 3 6 8 10 10 10 10 10 9 9 8 7 6 5 4 3 3 3 3 3 2 2 1 1 1 1 1 2 1 2 3 3
2 5 3 3 3 7 7 6 4 5 3 1 6 11 10 10 10 10 10 9 8 8 8 7 6 5 4 3 3 3 3 2 2 2 1 0 1 1 1 1 1 2 3 3
5 7 4 3 3 3 5 5 4 4 3 0 6 11 12 11 10 10 10 9 9 8 7 7 5 4 4 3 3 2 2 2 2 2 1 0 1 1 1 1 2 2 3 4
7 8 6 5 6 5 5 5 5 4 2 3 6 6 9 11 10 10 10 10 9 8 7 6 5 4 3 3 2 2 2 2 2 2 1 1 1 1 2 2 2 3 3 3
7 8 7 6 6 7 7 7 7 5 4 4 5 6 10 10 10 10 9 9 8 8 6 5 4 3 3 3 3 2 2 2 2 2 1 1 1 1 1 2 2 3 3 3
7 8 5 6 6 7 2 2 4 4 3 3 6 9 9 9 9 9 9 8 7 7 6 5 3 3 3 3 3 3 3 3 3 2 1 1 1 1 2 2 3 3 3 3
7 6 5 6 7 5 5 4 4 5 4 4 7 10 9 10 10 8 8 8 7 6 5 4 3 3 3 3 2 2 2 2 3 2 2 1 1 1 2 3 3 3 3 4
7 8 7 7 7 5 3 5 4 4 4 4 7 9 10 9 6 5 7 8 7 6 5 4 3 3 4 3 3 3 3 3 3 2 3 3 2 2 3 3 3 3 4 4
9 8 9 9 7 1 4 4 4 4 3 6 7 8 9 6 5 8 9 8 7 6 5 4 4 4 4 3 3 3 3 3 2 2 3 3 3 3 3 2 3 4 4 4
7 7 8 8 8 3 4 4 2 4 7 8 8 7 8 8 9 10 9 8 6 6 5 4 4 3 3 3 3 3 3 3 3 3 3 3 3 4 3 2 3 4 4 4
3 1 1 0 2 6 5 5 6 7 8 7 7 8 8 8 9 9 7 6 5 5 4 3 3 2 2 2 2 2 2 3 3 3 4 4 4 3 3 2 3 4 4 3
2 1 0 2 6 7 6 7 6 7 7 7 7 8 8 8 7 6 6 5 4 4 3 2 2 1 1 1 1 2 3 3 3 4 4 4 4 3 3 3 3 3 4 4
2 1 2 2 5 6 5 5 6 6 6 7 6 7 7 7 6 5 4 4 3 3 2 2 1 1 1 1 1 2 3 4 5 4 4 4 4 4 4 4 4 5 5 5
2 3 4 3 5 5 6 6 6 6 6 5 5 5 5 5 4 4 3 3 2 2 1 1 1 0 2 2 2 2 3 4 5 5 5 4 4 4 4 5 6 8 9 10
Wind_Direction
193 205 208 205 213 231 216 214 199 190 182 184 184 185 177 178 171 171 176 172 165 160 152 145 146 145 146 135 131 131 137 133 120 102 93 91 87 31 75 66 62 22 25 18
189 214 219 209 219 235 219 200 207 188 174 180 179 177 164 166 172 167 154 154 153 152 145 146 144 143 142 130 129 133 132 130 123 126 120 122 115 116 114 82 60 27 29 18
204 209 207 201 207 203 206 214 205 170 175 183 166 174 171 166 168 162 145 133 129 140 145 147 146 142 139 135 137 138 136 134 130 133 114 86 76 348 91 113 98 50 33 29
203 214 196 190 199 196 197 207 199 174 175 183 189 164 172 167 163 159 154 144 136 137 137 143 148 146 148 143 140 142 136 136 134 133 120 126 144 107 103 95 114 202 131 59
194 188 189 189 198 202 198 187 197 201 192 187 190 153 172 165 162 161 157 149 139 133 132 138 141 142 140 136 138 133 129 122 119 125 142 169 120 86 79 77 102 299 170 170
188 188 197 194 185 198 197 196 208 218 212 209 176 150 166 173 166 160 153 147 135 130 127 127 129 128 125 126 125 120 118 120 126 143 159 168 157 161 131 109 351 285 248 222
172 176 186 185 176 200 215 202 196 196 190 192 169 146 150 137 140 143 148 146 140 140 140 135 131 132 131 130 132 136 133 138 145 168 176 171 168 195 190 174 222 265 285 262
174 173 180 188 198 200 214 215 193 194 170 180 178 136 119 119 111 113 123 133 137 138 135 133 136 139 140 140 148 150 149 156 163 184 178 175 174 182 147 196 251 244 274 296
190 167 171 182 215 245 219 199 197 232 198 164 139 114 116 120 118 118 119 120 122 124 123 123 127 130 131 138 150 151 156 162 173 190 187 188 185 161 161 235 271 318 301 297
196 155 168 177 217 229 256 260 203 213 167 157 149 147 146 141 132 130 125 120 117 116 115 116 119 122 126 126 133 139 152 169 172 181 196 186 174 169 186 239 255 303 290 297
207 166 169 180 208 215 215 218 223 240 228 168 132 102 136 141 137 133 126 119 114 112 109 107 108 108 110 116 126 137 147 158 153 172 191 178 186 199 210 219 221 244 260 259
229 203 180 184 193 253 253 252 249 256 263 138 120 108 120 125 126 126 121 116 113 110 105 104 105 105 104 112 125 134 144 143 142 170 182 185 179 201 238 236 230 248 258 261
320 242 178 181 196 211 233 251 272 284 274 191 131 133 129 122 118 117 117 117 117 117 113 107 102 100 98 99 102 107 111 119 125 131 141 170 204 223 251 261 259 272 277 274
278 259 232 211 221 192 204 218 242 272 279 178 130 136 142 135 130 128 126 123 118 116 114 112 112 110 107 104 99 99 103 114 123 131 152 207 296 296 284 290 284 289 297 297
252 268 243 205 258 205 191 202 217 255 294 11 127 136 152 148 140 135 131 128 123 118 114 111 114 114 113 110 107 103 108 117 120 121 131 130 313 320 321 321 311 299 295 300
243 269 254 221 211 220 211 216 214 214 232 140 130 118 134 137 138 140 140 135 127 121 116 114 114 114 122 120 114 100 96 96 97 93 84 68 347 350 343 331 320 305 294 295
230 253 270 250 210 207 222 217 209 197 203 190 157 133 132 133 138 138 135 130 127 124 119 114 115 109 113 105 101 95 78 75 90 85 52 46 340 342 329 321 313 302 293 284
268 263 254 252 225 229 185 133 162 168 173 138 122 125 131 134 128 124 125 128 124 119 115 108 102 96 92 91 91 93 88 76 68 57 24 12 1 344 329 306 295 291 295 289
256 276 275 257 244 221 160 151 160 165 150 129 131 131 128 122 116 113 117 116 114 112 109 102 90 81 73 65 69 77 83 79 66 34 352 342 332 312 300 295 287 281 288 289
235 250 258 263 256 247 140 141 161 169 160 143 146 145 146 145 144 139 122 111 107 100 98 93 85 70 61 51 48 44 49 56 45 13 344 334 327 306 286 283 287 285 278 272
203 220 235 253 256 251 98 123 160 188 155 135 139 140 146 146 114 118 117 107 104 103 97 90 82 69 51 37 40 37 31 27 8 347 328 314 309 294 282 285 287 286 280 280
205 209 219 231 238 214 129 147 156 103 103 116 116 121 121 109 105 112 113 110 110 107 102 98 90 77 55 32 25 29 23 1 348 333 313 299 295 298 308 295 286 286 282 281
228 301 288 57 100 91 101 95 78 94 105 104 111 114 115 114 115 116 118 120 120 119 112 98 93 91 73 39 19 4 348 337 325 316 306 296 294 295 299 298 294 294 285 280
190 29 109 112 126 122 111 98 88 89 94 93 103 112 116 117 119 120 124 128 132 127 118 115 110 95 55 18 351 334 332 322 309 301 299 300 303 309 311 298 276 279 280 274
31 308 243 170 131 123 124 118 110 100 97 98 100 109 118 121 124 125 133 133 129 129 131 129 116 105 307 309 320 336 335 330 316 309 311 313 316 312 300 288 277 274 264 259
242 257 250 202 167 161 147 134 127 125 123 117 114 111 112 120 126 128 127 118 122 131 131 133 120 266 291 309 331 349 347 334 324 322 322 316 310 307 302 296 293 275 271 274
Height
1475 1477 1478 1474 1473 1471 1472 1475 1478 1475 1470 1475 1480 1482 1481 1481 1483 1485 1487 1490 1494 1496 1500 1503 1506 1509 1512 1514 1516 1518 1519 1520 1521 1521 1522 1522 1522 1522 1522 1521 1520 1520 1519 1518
1476 1477 1470 1468 1470 1470 1471 1477 1479 1473 1469 1473 1478 1481 1480 1482 1483 1485 1486 1489 1492 1495 1498 1502 1505 1508 1511 1513 1516 1517 1519 1520 1520 1521 1521 1522 1522 1522 1521 1520 1520 1519 1518 1518
1475 1471 1466 1467 1470 1472 1473 1476 1475 1474 1472 1471 1478 1485 1482 1481 1483 1485 1487 1489 1492 1495 1498 1501 1504 1508 1510 1513 1515 1516 1518 1519 1519 1520 1521 1521 1521 1521 1521 1520 1520 1519 1518 1518
1470 1466 1465 1467 1469 1469 1476 1468 1468 1471 1478 1484 1481 1497 1487 1481 1483 1484 1487 1489 1492 1495 1498 1501 1504 1507 1510 1512 1514 1516 1517 1518 1519 1519 1520 1520 1521 1521 1521 1520 1519 1519 1518 1518
1469 1464 1465 1468 1467 1467 1468 1464 1466 1469 1476 1484 1483 1493 1490 1480 1484 1484 1486 1489 1492 1495 1498 1501 1504 1507 1509 1511 1513 1515 1516 1517 1518 1518 1519 1520 1520 1520 1520 1520 1519 1519 1518 1518
1464 1463 1463 1464 1463 1464 1464 1466 1468 1469 1477 1494 1486 1493 1498 1484 1482 1482 1485 1488 1492 1495 1498 1501 1504 1506 1508 1510 1512 1514 1515 1516 1517 1518 1518 1519 1519 1519 1519 1519 1519 1518 1518 1517
1467 1464 1462 1462 1466 1466 1466 1474 1488 1493 1496 1496 1479 1488 1493 1479 1477 1479 1483 1488 1492 1495 1498 1501 1503 1506 1507 1509 1511 1512 1514 1515 1516 1517 1518 1518 1518 1519 1519 1519 1518 1518 1518 1517
1473 1474 1463 1462 1464 1467 1466 1472 1492 1502 1501 1490 1476 1486 1484 1475 1477 1480 1483 1487 1491 1495 1498 1501 1503 1505 1507 1508 1510 1511 1513 1514 1515 1516 1517 1517 1518 1518 1518 1518 1518 1518 1517 1517
1468 1469 1459 1460 1461 1462 1467 1472 1474 1484 1486 1491 1482 1482 1481 1476 1479 1481 1484 1488 1491 1495 1498 1500 1503 1505 1506 1507 1509 1510 1511 1513 1514 1515 1516 1516 1517 1517 1517 1517 1517 1517 1516 1516
1459 1466 1460 1459 1461 1460 1462 1464 1471 1482 1493 1498 1489 1486 1488 1483 1482 1483 1485 1489 1492 1495 1498 1500 1503 1504 1506 1507 1508 1509 1510 1512 1512 1513 1514 1515 1515 1516 1516 1516 1516 1516 1515 1515
1454 1463 1464 1461 1463 1462 1462 1464 1467 1472 1473 1485 1496 1492 1471 1477 1480 1483 1486 1489 1492 1495 1498 1500 1502 1504 1506 1507 1508 1509 1510 1511 1511 1512 1513 1514 1514 1514 1514 1515 1515 1514 1514 1514
1452 1458 1464 1460 1454 1453 1453 1456 1460 1474 1472 1469 1483 1493 1469 1474 1478 1482 1486 1490 1493 1496 1498 1501 1503 1504 1506 1507 1508 1509 1509 1510 1511 1511 1512 1512 1513 1513 1513 1513 1513 1513 1513 1512
1454 1459 1470 1471 1466 1457 1456 1455 1455 1459 1463 1469 1483 1491 1472 1475 1480 1484 1487 1491 1494 1497 1499 1501 1503 1504 1506 1507 1508 1508 1509 1509 1510 1510 1510 1511 1511 1511 1511 1511 1511 1511 1511 1511
1456 1456 1464 1474 1464 1455 1458 1456 1455 1460 1468 1469 1472 1480 1476 1478 1481 1485 1489 1492 1495 1497 1499 1501 1503 1504 1505 1506 1507 1508 1508 1508 1509 1509 1509 1509 1509 1510 1510 1510 1509 1509 1509 1509
1452 1455 1453 1453 1450 1449 1452 1454 1456 1459 1460 1466 1469 1472 1475 1476 1480 1485 1489 1492 1495 1497 1499 1501 1503 1504 1505 1506 1506 1507 1507 1508 1508 1508 1508 1508 1508 1508 1508 1508 1507 1507 1506 1506
1450 1452 1451 1453 1449 1450 1454 1454 1455 1458 1459 1462 1466 1471 1470 1475 1480 1484 1488 1491 1494 1497 1499 1501 1503 1503 1504 1505 1505 1506 1506 1506 1506 1506 1506 1506 1506 1506 1506 1505 1505 1504 1504 1503
1448 1451 1455 1456 1448 1452 1462 1453 1454 1456 1457 1460 1468 1470 1470 1475 1479 1483 1487 1490 1493 1496 1498 1500 1501 1503 1503 1504 1504 1505 1505 1505 1505 1505 1505 1505 1504 1504 1504 1503 1502 1502 1501 1501
1448 1449 1452 1455 1456 1471 1457 1445 1447 1453 1456 1457 1461 1466 1470 1475 1479 1484 1487 1490 1493 1495 1498 1499 1501 1502 1502 1503 1503 1504 1504 1504 1504 1503 1503 1503 1502 1502 1501 1500 1500 1499 1498 1498
1447 1451 1454 1455 1460 1460 1454 1448 1449 1455 1460 1459 1463 1467 1472 1476 1480 1485 1488 1490 1493 1495 1497 1498 1500 1500 1501 1502 1502 1503 1503 1503 1502 1502 1502 1501 1500 1499 1498 1498 1497 1496 1496 1495
1447 1449 1455 1456 1463 1465 1454 1447 1448 1454 1465 1461 1463 1467 1472 1475 1482 1486 1488 1490 1492 1494 1496 1497 1498 1499 1500 1500 1501 1501 1501 1501 1500 1500 1500 1499 1498 1497 1496 1495 1494 1493 1493 1492
1452 1453 1457 1459 1460 1457 1451 1449 1451 1466 1466 1460 1463 1467 1471 1475 1479 1483 1486 1489 1491 1493 1495 1496 1497 1498 1498 1499 1499 1499 1499 1499 1499 1498 1497 1497 1496 1494 1494 1492 1491 1490 1489 1489
1445 1450 1453 1454 1460 1463 1452 1452 1455 1459 1458 1461 1465 1468 1472 1476 1479 1482 1486 1488 1491 1492 1494 1495 1496 1497 1497 1498 1498 1498 1498 1497 1497 1496 1495 1494 1493 1492 1491 1490 1488 1487 1486 1485
1439 1442 1443 1449 1456 1453 1452 1454 1457 1458 1461 1464 1467 1470 1474 1477 1480 1483 1486 1488 1490 1492 1493 1494 1495 1495 1496 1496 1496 1496 1496 1495 1494 1494 1493 1492 1491 1490 1488 1487 1485 1484 1483 1482
1438 1440 1443 1449 1452 1454 1455 1457 1459 1461 1464 1466 1469 1472 1474 1477 1480 1483 1485 1487 1489 1491 1492 1493 1494 1494 1495 1495 1494 1494 1494 1493 1492 1491 1490 1489 1488 1486 1485 1483 1482 1481 1479 1478
1442 1442 1444 1448 1452 1455 1457 1459 1461 1463 1465 1468 1470 1472 1475 1477 1480 1482 1484 1486 1488 1489 1490 1491 1492 1492 1493 1493 1492 1492 1491 1490 1489 1488 1487 1486 1485 1483 1481 1480 1478 1477 1475 1474
1443 1445 1447 1449 1450 1453 1457 1459 1462 1464 1466 1469 1471 1473 1475 1477 1479 1481 1483 1485 1486 1487 1488 1489 1489 1490 1490 1490 1490 1489 1488 1487 1486 1485 1484 1483 1481 1479 1477 1475 1474 1472 1471 1470